Escatawpa, MS

6:20 AM CST on February 23, 2017 (GMT -0600)
Lott International

Weather History for KPQL - July, 2013

Change the Weather History Date:

Thursday, July 4, 2013

  Actual Average Record
Temperature  
Mean Temperature 80 °F -  
Max Temperature 89 °F 90 °F 98 °F (1970)
Min Temperature 71 °F 74 °F 66 °F (2000)
Cooling Degree Days 14    
Growing Degree Days 30 (Base 50)    
Moisture  
Dew Point 73 °F    
Average Humidity 82    
Maximum Humidity 97    
Minimum Humidity 61    
Precipitation  
Precipitation 0.24 in - - ()
Sea Level Pressure  
Sea Level Pressure 29.96 in    
Wind  
Wind Speed 6 mph (ESE)    
Max Wind Speed 16 mph    
Max Gust Speed 18 mph    
Visibility 9 miles    
Events Rain , Thunderstorm    
Averages and records for this station are not official NWS values.
T = Trace of Precipitation, MM = Missing Value Source: NWS Daily Summary

Daily Weather History Graph

Daily Weather History Graph

Search for Another Location

Airport or City:

Trip Planner

Search our weather history database for the weather conditions in past years. The results will help you decide how hot, cold, wet, or windy it might be!

Date:

Astronomy

Jul. 04, 2013 Rise Set
Actual Time 5:56 AM CDT 8:00 PM CDT
Civil Twilight 5:29 AM CDT 8:27 PM CDT
Nautical Twilight 4:56 AM CDT 9:00 PM CDT
Astronomical Twilight 4:20 AM CDT 9:36 PM CDT
Moon 3:08 AM CDT (7/4) 5:08 PM CDT (7/4)
Length of Visible Light 14h 58m
Length of Day
14h 03m
Waning Crescent, 11% of the Moon is Illuminated
Jul 4
Waning Crescent
Jul 8
New
Jul 15
First Quarter
Jul 22
Full
Jul 29
Last Quarter

Hourly Weather History & Observations

Time (CDT) Temp. Heat Index Dew Point Humidity Pressure Visibility Wind Dir Wind Speed Gust Speed Precip Events Conditions
12:22 AM 73.4 °F - 71.6 °F 94% 29.97 in 10.0 mi NNE 8.1 mph - 0.00 in Rain , Thunderstorm Light Rain
12:37 AM 73.4 °F - 71.6 °F 94% 29.97 in 10.0 mi NE 4.6 mph - 0.00 in Rain , Thunderstorm Light Thunderstorms and Rain
12:53 AM 73.9 °F - 72.0 °F 93% 29.98 in 6.0 mi NE 5.8 mph - 0.02 in Rain , Thunderstorm Light Thunderstorms and Rain
1:16 AM 73.4 °F - 71.6 °F 94% 29.96 in 4.0 mi East 5.8 mph - 0.05 in Rain Rain
1:53 AM 73.9 °F - 73.0 °F 97% 29.95 in 8.0 mi ENE 4.6 mph - 0.09 in Rain Rain
2:53 AM 73.0 °F - 71.1 °F 93% 29.94 in 10.0 mi NNE 4.6 mph - 0.00 in   Partly Cloudy
3:09 AM 73.4 °F - 71.6 °F 94% 29.94 in 10.0 mi NNE 4.6 mph - N/A   Mostly Cloudy
3:44 AM 73.4 °F - 71.6 °F 94% 29.94 in 10.0 mi NE 5.8 mph - N/A   Mostly Cloudy
3:53 AM 73.0 °F - 71.1 °F 93% 29.94 in 10.0 mi NNE 4.6 mph - N/A   Scattered Clouds
4:53 AM 72.0 °F - 69.1 °F 91% 29.94 in 10.0 mi Calm Calm - N/A   Clear
5:53 AM 71.1 °F - 69.1 °F 93% 29.94 in 10.0 mi Calm Calm - N/A   Clear
6:21 AM 71.6 °F - 69.8 °F 94% 29.94 in 10.0 mi Calm Calm - N/A   Partly Cloudy
6:53 AM 73.0 °F - 71.1 °F 93% 29.95 in 10.0 mi NNE 6.9 mph - N/A   Mostly Cloudy
7:53 AM 73.0 °F - 71.1 °F 93% 29.96 in 10.0 mi NNE 9.2 mph - N/A   Overcast
8:53 AM 75.9 °F - 72.0 °F 87% 29.96 in 10.0 mi NNE 5.8 mph - N/A   Overcast
9:53 AM 79.0 °F - 72.0 °F 79% 29.96 in 10.0 mi NNE 4.6 mph - N/A   Overcast
10:37 AM 80.6 °F 84.6 °F 71.6 °F 74% 29.97 in 10.0 mi Calm Calm - N/A   Mostly Cloudy
10:53 AM 82.9 °F 88.8 °F 73.0 °F 72% 29.98 in 10.0 mi Calm Calm - N/A   Scattered Clouds
11:53 AM 86.0 °F 93.0 °F 73.0 °F 65% 29.98 in 10.0 mi ENE 4.6 mph - N/A   Scattered Clouds
12:53 PM 88.0 °F 96.5 °F 73.9 °F 63% 29.96 in 10.0 mi Variable 4.6 mph - N/A   Clear
1:53 PM 87.1 °F 93.6 °F 72.0 °F 61% 29.95 in 10.0 mi NW 3.5 mph - N/A   Overcast
2:35 PM 84.2 °F 92.3 °F 75.2 °F 74% 29.93 in 10.0 mi Variable 3.5 mph - 0.00 in   Mostly Cloudy
2:53 PM 84.9 °F 92.1 °F 73.9 °F 69% 29.94 in 10.0 mi South 9.2 mph - 0.00 in   Overcast
3:06 PM 84.2 °F 90.9 °F 73.4 °F 70% 29.94 in 10.0 mi South 8.1 mph - N/A   Mostly Cloudy
3:41 PM 84.2 °F 90.9 °F 73.4 °F 70% 29.93 in 10.0 mi SSE 9.2 mph - N/A   Mostly Cloudy
3:53 PM 84.9 °F 92.1 °F 73.9 °F 69% 29.93 in 10.0 mi SSE 16.1 mph - N/A   Overcast
4:25 PM 82.4 °F 88.2 °F 73.4 °F 74% 29.94 in 10.0 mi SSE 10.4 mph - N/A   Mostly Cloudy
4:53 PM 82.9 °F 88.8 °F 73.0 °F 72% 29.95 in 10.0 mi South 4.6 mph - N/A   Overcast
5:32 PM 80.6 °F 85.4 °F 73.4 °F 79% 29.95 in 5.0 mi South 10.4 mph - 0.04 in Rain Light Rain
5:36 PM 80.6 °F 86.2 °F 75.2 °F 84% 29.95 in 1.8 mi SE 9.2 mph 18.4 mph 0.12 in Rain Heavy Rain
5:44 PM 80.6 °F 86.2 °F 75.2 °F 84% 29.95 in 4.0 mi SE 9.2 mph - 0.12 in Rain Light Rain
5:53 PM 80.1 °F 85.1 °F 75.0 °F 85% 29.96 in 10.0 mi SE 12.7 mph - 0.13 in Rain Light Rain
6:53 PM 81.0 °F 86.2 °F 73.9 °F 79% 29.96 in 10.0 mi SE 12.7 mph - 0.00 in   Clear
7:53 PM 80.1 °F 84.5 °F 73.9 °F 81% 29.97 in 10.0 mi SE 11.5 mph - N/A   Partly Cloudy
8:53 PM 80.1 °F 84.5 °F 73.9 °F 81% 29.98 in 10.0 mi SSE 6.9 mph - N/A   Scattered Clouds
9:26 PM 80.6 °F 85.4 °F 73.4 °F 79% 29.98 in 10.0 mi SSE 5.8 mph - N/A   Mostly Cloudy
9:53 PM 80.1 °F 84.5 °F 73.9 °F 81% 29.99 in 10.0 mi SSE 10.4 mph - N/A   Scattered Clouds
10:53 PM 80.1 °F 84.2 °F 73.0 °F 79% 30.00 in 10.0 mi South 8.1 mph - N/A   Clear
11:53 PM 80.1 °F 84.2 °F 73.0 °F 79% 30.00 in 10.0 mi South 6.9 mph - N/A   Partly Cloudy